Wind_Speed
6 7 7 8 8 9 9 9 10 10 10 10 9 9 9 9 8 8 7 6 5 5 4 3 2 2 4 5 6 7 7 7 6 6 5 4 4 4 4 2 2 3 4 4 4 3 0 3 4 6 7 6 5 3 2 2 4 4 2 3 4 3 3 3 5 4 1 1 6 11 14 12 7 11 12 9 12 11 11 18 21 22 27 26 19 14 12 13
6 6 7 8 8 9 9 9 10 10 10 11 10 10 10 10 9 8 8 8 6 5 5 4 3 3 4 6 7 8 9 9 9 10 9 7 6 6 5 4 2 2 3 3 4 4 2 3 4 7 9 6 4 3 3 1 2 3 1 3 4 2 1 1 4 3 1 1 5 10 13 12 7 9 13 8 9 12 11 14 19 21 25 30 27 20 16 16
6 6 6 7 7 8 8 9 9 10 10 11 11 11 11 11 11 10 9 9 8 7 6 5 4 4 4 5 8 8 9 9 11 13 11 9 8 7 6 5 3 1 1 3 3 4 4 2 4 9 10 6 4 4 3 1 1 2 2 5 3 1 2 3 5 5 4 1 3 8 12 11 6 8 12 9 7 10 13 14 15 21 28 31 31 27 22 19
5 6 6 6 6 7 7 8 9 9 10 10 11 11 12 12 12 12 11 10 10 9 7 6 5 5 4 5 7 8 9 9 12 15 13 11 9 8 7 6 4 2 1 3 3 5 5 0 5 10 9 5 4 5 3 1 1 3 3 4 1 1 3 3 5 6 7 4 3 7 9 9 9 11 13 9 7 9 16 22 22 26 29 30 31 31 28 25
6 6 5 6 6 6 7 7 8 8 9 10 11 11 12 12 12 12 12 12 11 10 9 8 6 5 5 5 5 7 6 4 5 11 14 13 11 9 7 6 6 4 2 3 4 5 5 0 7 9 7 3 4 4 2 2 2 3 4 3 1 2 2 2 4 6 8 6 5 7 8 8 10 12 15 13 11 10 14 24 28 28 28 28 28 29 30 29
7 6 6 5 5 6 6 6 7 8 8 9 10 11 12 12 13 13 13 13 12 12 11 9 8 6 5 5 6 6 7 4 1 5 12 15 12 10 8 7 7 5 4 4 4 4 5 1 6 7 4 2 4 3 2 5 4 3 3 2 3 6 4 3 3 4 7 7 6 7 7 8 9 10 14 20 24 19 15 20 21 22 26 27 27 27 30 31
8 8 7 6 6 6 6 6 7 8 8 9 10 11 12 12 13 14 14 14 13 12 12 11 9 8 6 6 7 7 11 12 8 6 10 14 14 11 10 8 7 7 6 5 4 4 4 2 5 7 5 1 4 4 3 5 6 4 2 2 4 8 8 6 4 5 6 8 7 7 7 8 10 8 8 21 34 30 26 26 21 19 21 23 26 28 30 31
10 9 9 8 8 8 7 7 7 8 8 9 10 11 12 13 13 14 14 15 15 14 13 12 10 9 7 7 7 8 13 15 12 11 11 14 15 13 11 9 8 8 7 7 6 5 5 3 4 7 5 1 4 6 5 4 6 6 3 2 4 6 9 10 8 8 7 8 7 6 7 7 10 8 8 26 38 33 32 31 28 25 21 22 25 28 30 32
12 12 11 11 10 10 9 9 9 9 9 9 10 11 13 13 14 15 15 15 16 15 14 13 12 10 8 8 8 7 10 11 9 10 12 14 16 15 14 11 10 9 9 8 7 7 5 4 4 5 4 3 5 5 6 4 4 6 4 2 4 5 7 9 8 7 7 8 7 7 9 6 7 7 14 31 34 30 30 30 31 31 27 26 26 28 30 32
15 14 14 13 13 12 11 11 11 10 10 10 11 12 13 14 15 15 16 16 17 16 15 15 13 11 9 8 6 5 7 7 7 8 10 12 15 16 15 13 11 10 9 9 8 8 6 5 5 5 4 4 6 4 5 4 1 4 4 4 6 7 7 7 7 6 6 7 7 9 9 5 3 3 11 18 15 16 19 24 30 31 32 32 30 30 31 33
17 17 16 16 15 14 13 13 13 13 12 11 12 12 13 14 15 16 17 17 18 18 18 17 14 11 10 8 8 8 9 7 6 8 9 11 14 16 16 14 13 11 10 10 9 8 7 7 5 3 3 4 5 4 4 4 1 2 3 5 7 7 9 9 8 7 6 5 6 7 8 8 2 4 18 18 11 11 11 17 24 28 31 32 32 32 32 34
19 19 19 18 17 17 16 15 15 15 14 13 13 14 14 15 16 16 17 18 19 19 19 17 13 10 9 10 14 14 13 12 10 9 10 12 14 15 15 14 13 11 11 10 9 9 8 7 5 3 3 3 4 2 3 3 1 1 1 4 5 5 7 8 6 5 5 4 3 3 7 10 9 15 28 25 19 17 13 16 21 24 29 30 31 32 33 35
21 20 20 20 20 19 18 18 17 17 16 15 15 15 15 16 16 17 18 18 19 20 20 16 11 9 8 10 14 13 13 13 13 12 11 12 13 14 14 14 13 12 11 10 9 8 8 7 5 4 4 4 2 2 3 3 1 1 2 3 4 5 5 5 4 3 5 4 4 3 7 9 13 22 30 24 22 18 15 19 22 24 27 29 31 32 35 36
22 22 22 22 21 21 21 20 20 20 19 17 16 16 16 17 17 18 18 19 19 20 19 15 10 9 8 11 13 13 13 12 13 13 13 13 13 13 14 14 13 12 11 10 8 7 7 7 4 3 4 3 3 4 2 2 1 1 1 1 2 4 2 4 3 5 6 4 7 5 7 9 8 13 19 20 22 19 17 20 23 27 28 29 31 33 36 36
24 24 23 23 23 22 22 22 22 22 22 20 18 17 18 18 18 18 19 19 19 20 18 14 11 9 9 13 14 12 13 13 14 14 14 14 13 13 13 13 12 12 11 9 8 7 6 6 4 2 2 4 4 4 2 2 2 1 2 3 2 3 2 3 5 7 4 3 8 8 6 11 8 5 11 16 18 19 18 19 22 27 29 30 32 34 36 36
26 25 25 25 24 24 24 23 23 24 24 22 21 20 19 20 20 19 20 20 19 20 17 13 12 9 7 11 12 11 12 13 13 13 14 14 13 13 12 12 11 10 10 8 7 6 5 5 4 3 3 3 3 3 3 4 3 2 3 5 2 4 3 1 4 5 4 2 8 10 6 10 7 3 9 13 14 16 18 19 22 27 30 31 33 35 36 37
28 27 27 27 26 26 25 25 25 25 25 24 23 22 20 21 22 21 21 20 19 18 16 13 10 8 9 11 11 12 13 12 12 12 12 13 13 13 12 11 10 9 8 7 6 6 6 4 3 3 3 1 1 3 4 6 6 2 2 4 4 4 4 3 2 4 4 4 8 11 9 15 15 6 7 12 13 14 17 24 26 27 31 33 34 36 38 37
29 29 29 29 28 28 27 26 26 26 26 25 25 24 22 22 23 23 22 21 18 14 12 11 7 4 9 14 13 11 11 11 11 11 12 12 13 13 13 11 9 8 6 5 6 6 5 3 2 3 2 3 3 5 6 7 6 4 4 5 5 5 6 7 3 3 6 5 8 11 12 18 22 17 15 17 18 18 23 31 33 30 31 34 36 38 38 39
30 30 31 31 31 30 29 28 28 28 27 26 25 25 24 23 22 21 19 16 12 8 6 7 9 4 4 8 11 11 11 11 11 12 12 13 13 13 13 11 9 8 5 3 5 6 5 2 2 4 5 8 8 10 11 8 4 5 5 5 7 7 8 6 2 2 4 5 10 13 14 18 21 20 19 20 19 22 29 33 33 28 26 32 37 38 38 40
28 29 30 31 32 32 31 29 29 29 29 28 26 25 21 15 12 11 11 12 13 13 13 12 12 13 12 10 12 13 13 13 13 13 12 13 13 12 12 10 8 8 6 3 3 5 4 4 6 10 10 9 11 13 10 3 1 3 2 4 8 8 10 5 4 3 2 4 12 14 14 17 20 19 19 22 17 17 25 29 30 26 25 32 36 36 38 40
24 26 27 28 30 31 31 30 31 31 30 29 27 23 15 9 7 7 10 13 17 18 18 20 20 21 22 21 20 19 16 14 14 15 14 13 13 10 10 11 7 6 5 3 3 3 3 6 12 13 8 4 5 8 5 1 2 4 4 5 7 8 9 5 4 3 3 4 9 11 12 16 19 18 19 22 18 19 26 27 28 26 25 33 35 36 38 40
24 25 24 25 26 27 27 27 28 30 29 29 26 21 15 14 13 12 12 12 17 21 19 22 24 26 28 27 27 26 19 13 15 18 17 16 17 11 8 10 7 4 3 5 3 2 4 10 14 5 4 4 2 2 5 5 4 4 3 4 6 5 6 4 2 3 4 4 7 8 11 16 19 20 20 21 20 26 32 27 27 28 25 30 34 36 37 38
24 25 25 24 24 24 23 22 23 26 26 25 23 19 16 15 13 13 11 8 14 21 20 22 24 26 28 27 28 27 21 15 14 19 20 18 18 14 11 9 6 2 4 8 8 5 5 9 6 3 8 7 3 3 6 4 4 5 4 5 7 3 2 5 0 2 4 4 6 10 12 14 16 17 18 18 21 28 31 24 27 33 31 31 33 34 35 37
23 24 25 24 25 24 22 20 20 20 22 21 19 17 15 13 12 11 10 6 8 13 18 21 21 24 26 24 24 22 20 19 14 14 19 22 19 13 11 8 5 4 7 11 11 10 9 3 4 5 5 7 4 4 7 6 5 7 7 9 10 4 4 5 2 2 5 4 3 8 12 10 9 11 9 5 8 17 20 17 24 33 34 33 31 32 35 36
22 22 23 24 25 23 21 19 17 17 17 16 15 14 11 8 8 7 6 5 5 6 11 16 17 20 22 20 20 17 14 16 17 13 15 23 22 11 6 7 7 8 8 8 8 11 11 2 7 5 3 5 6 5 8 8 6 6 8 12 12 7 3 2 3 4 5 3 1 4 10 8 4 7 5 1 3 8 8 9 19 27 26 27 30 33 34 34
21 20 21 22 23 22 19 14 13 13 11 11 12 10 8 6 4 4 4 4 4 3 4 8 9 10 12 13 15 13 6 8 15 16 14 20 24 13 4 6 5 4 4 7 5 6 4 2 4 4 5 6 7 7 7 8 6 5 3 5 8 6 3 2 1 3 4 3 0 2 7 9 2 7 6 4 3 6 4 5 15 24 22 22 28 31 31 32
18 17 18 19 20 21 16 11 13 11 7 9 9 8 7 6 3 3 3 5 6 6 7 7 8 8 9 9 15 12 2 3 8 13 18 19 21 16 8 6 4 2 4 4 3 2 2 3 2 4 5 6 7 7 6 10 6 3 1 1 2 4 4 5 4 5 5 4 2 3 6 11 9 8 9 8 7 7 8 9 13 23 27 24 25 28 28 28
16 14 16 17 18 19 14 11 13 11 9 9 8 10 8 7 6 3 1 7 3 7 6 6 7 8 8 11 18 11 1 3 4 8 18 19 18 13 8 7 4 3 5 4 5 2 2 4 6 7 6 6 6 2 4 11 6 1 1 1 4 4 3 4 4 5 3 4 4 7 8 9 10 6 6 6 9 10 13 16 15 19 30 29 25 26 25 23
16 14 16 16 17 17 13 9 9 10 12 9 9 11 10 10 6 3 1 6 1 5 4 7 8 7 7 10 15 10 2 1 1 6 14 14 15 9 4 5 4 3 4 4 5 1 2 2 4 6 6 5 2 5 1 7 4 3 4 4 6 4 3 3 3 4 3 4 6 8 11 7 10 4 7 1 7 12 12 14 13 14 24 29 25 23 21 19
17 15 16 17 17 16 13 9 8 11 11 11 12 13 13 11 5 1 7 6 1 2 4 7 7 6 9 7 6 7 3 1 2 8 9 7 11 6 1 4 4 2 2 2 4 1 3 2 0 3 4 2 6 5 4 1 3 7 6 3 3 2 2 1 2 1 4 7 6 11 16 11 9 1 9 5 6 12 11 9 11 10 16 25 26 22 18 17
17 16 18 18 17 16 13 9 9 10 14 14 13 16 14 7 2 6 9 2 0 2 4 5 4 6 10 6 2 5 4 1 4 9 6 4 7 5 3 4 3 2 2 4 5 2 3 2 2 3 5 6 6 4 5 4 3 4 3 1 1 2 2 2 2 2 6 6 2 5 11 14 11 4 7 5 4 10 10 8 10 8 11 22 25 22 18 18
17 17 20 20 18 17 15 10 10 11 15 15 15 17 11 2 5 7 3 3 1 4 3 3 3 5 7 3 1 4 3 2 6 7 4 3 5 6 6 5 5 3 4 5 4 1 3 4 2 2 5 8 5 4 4 2 2 3 3 3 3 3 2 3 3 3 6 6 1 2 3 9 14 9 6 5 4 8 9 9 12 9 11 19 22 20 19 19
17 17 21 22 20 19 16 12 12 14 15 16 17 12 5 4 8 5 4 3 2 1 2 1 1 3 5 4 3 4 2 2 5 5 3 3 4 6 6 4 2 2 3 4 3 2 2 1 5 4 4 10 11 7 4 4 6 7 6 5 5 3 2 5 4 3 5 4 2 4 2 6 10 8 12 16 14 12 12 19 24 20 18 20 18 16 17 19
18 18 22 24 21 19 16 12 14 18 17 19 16 7 3 9 5 4 7 7 1 1 2 2 3 3 3 3 2 3 3 3 6 6 4 4 4 6 7 7 6 2 1 2 2 3 5 5 7 7 4 12 15 8 2 5 7 7 3 2 5 4 4 6 4 5 7 5 2 4 2 5 3 1 8 14 15 16 19 29 32 26 26 26 19 16 17 19
20 19 23 25 24 22 17 12 15 19 19 20 12 4 6 11 3 3 6 5 2 1 1 1 3 5 3 2 1 3 6 4 5 5 5 6 6 6 6 9 10 6 3 3 3 3 5 7 4 3 2 12 12 4 4 6 5 3 2 1 4 4 5 4 4 2 3 6 5 5 4 7 3 0 2 2 4 11 19 28 27 23 31 32 24 24 24 24
22 22 24 28 29 25 17 13 16 20 21 17 8 5 11 12 5 3 4 6 5 4 5 1 2 4 4 2 2 5 5 3 3 4 5 6 6 6 3 4 11 13 9 6 2 3 4 4 4 4 0 6 3 1 3 1 3 4 3 4 2 0 2 5 3 2 1 7 7 4 7 9 4 4 6 7 5 8 12 18 17 20 30 30 25 30 34 33
27 27 29 34 34 27 19 14 15 22 22 13 8 9 9 8 7 6 4 6 5 6 7 4 5 6 5 4 5 7 5 3 4 5 5 4 5 7 6 4 9 17 18 11 3 4 4 3 2 3 1 0 4 3 2 3 2 4 4 4 3 2 1 2 4 1 2 8 7 6 11 12 9 5 4 8 8 9 12 12 10 14 21 20 24 35 39 37
33 31 33 38 36 28 20 15 17 23 16 7 11 15 7 4 8 8 7 7 5 7 7 7 6 7 7 6 4 6 7 5 7 5 5 4 4 7 10 6 9 17 24 19 6 3 3 3 2 1 1 2 3 1 2 2 2 1 2 1 1 2 3 3 2 4 6 7 7 13 17 14 11 6 5 10 11 12 14 13 9 11 12 14 24 36 38 36
35 28 29 36 35 29 22 18 21 21 10 4 11 12 4 4 6 8 15 14 6 7 10 10 8 5 7 7 2 5 8 7 8 6 6 5 4 6 11 8 8 14 22 20 8 2 3 4 4 0 2 1 2 3 6 5 2 1 2 1 0 2 3 3 2 2 5 6 8 15 18 13 7 5 10 13 13 12 12 11 11 11 13 16 25 34 36 34
35 21 18 26 28 27 25 23 23 17 7 6 10 7 2 2 5 8 19 18 6 5 9 10 10 7 5 5 1 3 7 7 7 7 5 5 4 4 9 9 4 5 12 14 7 1 3 4 5 1 1 3 5 7 8 9 8 5 5 6 4 2 1 2 2 1 3 6 6 9 14 13 2 6 9 12 11 11 10 9 9 9 15 22 29 33 32 30
33 14 11 16 17 26 31 25 18 11 5 5 9 9 5 3 4 7 14 16 8 4 5 5 8 9 7 5 3 3 6 5 6 6 4 6 6 4 10 15 8 7 7 5 5 5 4 4 6 4 3 6 6 4 2 2 6 8 7 8 9 7 4 3 5 2 2 5 7 5 11 16 4 6 3 4 5 6 7 8 7 8 16 25 28 29 27 25
24 9 11 15 19 33 35 19 11 9 5 7 9 6 4 4 5 5 8 12 8 4 3 3 4 7 7 6 5 5 5 5 6 7 5 7 9 6 11 19 17 15 10 4 5 7 3 2 5 7 6 4 1 2 1 2 1 4 5 6 7 7 7 7 7 4 3 4 5 1 8 15 3 7 2 3 5 5 7 7 6 8 18 22 22 24 23 24
19 13 14 17 25 40 32 9 7 10 7 11 10 6 6 4 3 2 4 7 6 3 4 3 3 5 7 4 4 5 6 6 6 6 4 4 9 10 11 18 19 13 6 2 2 3 3 1 5 6 5 1 3 4 2 0 2 4 6 6 7 8 10 7 4 2 2 5 5 3 8 13 1 8 1 2 4 5 5 6 6 9 17 20 20 22 24 24
20 15 14 19 32 42 27 6 8 12 10 10 10 11 12 7 5 6 5 5 6 4 4 5 3 4 5 2 3 6 7 7 6 6 6 5 5 8 14 23 22 10 6 5 6 9 7 3 4 4 5 4 2 3 3 2 4 5 5 7 9 11 10 4 1 0 5 12 11 7 11 14 2 4 2 3 4 5 4 7 10 11 16 21 22 23 23 24
14 8 11 23 39 41 24 10 8 9 12 13 13 15 14 9 10 13 10 9 10 5 2 5 3 3 4 2 3 7 7 8 8 5 7 7 2 1 10 25 26 14 8 7 9 13 9 4 6 7 7 9 11 10 4 4 6 4 3 10 13 16 17 10 4 7 10 11 11 10 14 15 11 12 11 6 7 11 6 7 12 15 18 22 23 23 25 26
11 5 5 15 32 36 27 20 11 5 10 14 12 11 13 12 10 10 10 12 15 11 4 3 1 2 5 5 7 10 10 11 9 5 6 7 2 2 5 18 22 15 9 8 12 12 4 4 12 14 14 13 15 15 5 6 7 7 7 13 16 19 21 14 9 11 8 4 7 15 20 18 18 24 24 18 16 19 15 7 9 16 21 22 23 25 27 29
10 5 6 10 17 21 21 21 16 9 9 12 8 6 13 16 9 5 10 12 14 14 8 4 4 5 6 10 12 13 14 12 9 10 13 10 3 1 2 9 13 10 5 5 10 9 1 5 15 20 23 21 21 25 16 7 9 10 10 15 16 18 20 17 18 14 5 4 9 20 23 19 18 23 28 25 20 19 17 15 14 16 16 17 21 25 28 30
11 6 14 18 12 7 12 21 22 17 14 12 8 6 11 15 12 10 11 9 8 10 8 6 10 14 15 15 12 11 11 8 7 12 16 13 7 2 1 2 5 6 4 2 4 5 2 6 13 16 21 21 21 25 21 10 8 9 9 13 16 19 21 23 23 16 9 9 17 22 24 20 17 22 27 22 18 18 19 22 24 18 13 16 23 28 30 33
16 9 13 21 14 9 20 28 25 21 18 13 9 9 11 14 16 15 10 4 3 10 13 10 14 19 22 19 14 11 10 9 12 14 13 14 11 5 3 5 3 3 4 3 2 3 3 6 12 14 16 17 17 21 22 14 9 9 9 10 14 18 20 21 21 18 19 21 18 17 20 20 18 22 22 20 22 24 23 27 31 26 21 27 34 35 36 36
17 12 8 15 15 13 23 26 18 13 16 15 10 10 14 17 20 18 11 10 9 9 13 18 22 21 21 22 19 16 16 17 19 18 14 13 11 7 6 6 3 2 3 4 2 3 5 8 12 12 11 14 19 23 22 14 11 12 11 13 19 18 15 17 19 16 17 19 18 16 15 16 19 21 20 23 30 28 23 26 33 32 29 31 35 36 38 38
25 23 18 13 9 11 16 16 12 10 12 13 12 12 15 18 21 18 14 20 22 14 14 23 27 22 18 18 16 17 24 26 25 27 26 18 11 9 9 6 5 4 3 4 3 2 5 7 8 8 9 12 16 20 17 9 6 7 11 19 26 20 13 17 19 14 12 14 18 18 14 14 18 20 20 23 26 25 21 22 29 35 34 31 30 33 38 39
24 27 27 19 7 9 12 10 11 12 10 12 17 19 18 20 23 19 13 16 26 30 27 24 21 17 12 12 18 28 38 40 38 41 38 24 13 15 17 13 11 9 6 5 3 3 5 6 6 8 9 11 15 18 12 6 4 7 14 23 25 20 19 23 21 18 17 15 15 14 13 15 19 19 19 21 22 21 19 20 29 36 33 29 29 36 41 41
Wind_Direction
2 1 360 360 358 357 357 357 356 356 356 355 356 354 353 356 359 360 1 9 18 9 353 351 344 279 236 225 218 216 211 210 213 212 213 206 200 205 197 165 102 67 54 52 47 35 151 207 221 208 199 195 204 199 157 135 152 178 216 235 243 240 229 207 201 197 336 48 156 175 188 197 188 185 199 210 210 216 221 216 219 222 223 227 226 223 229 229
352 355 356 357 357 356 356 356 355 355 354 352 352 350 349 347 347 348 346 346 352 2 351 333 322 304 262 240 230 227 224 224 227 222 215 209 207 215 212 196 159 81 50 41 34 22 346 271 223 188 182 183 198 194 184 152 162 203 229 246 248 242 230 217 230 217 201 46 156 182 194 206 203 171 187 209 206 203 218 222 222 230 231 231 230 225 229 227
340 344 348 352 353 354 353 353 353 353 352 350 348 348 348 344 342 341 340 337 336 341 342 333 313 299 289 256 239 237 236 239 244 233 218 208 211 218 218 212 205 154 38 14 15 11 351 297 192 174 172 174 185 174 176 193 211 198 209 251 250 290 277 244 239 221 204 178 147 187 193 206 218 175 187 212 210 199 219 220 209 227 234 234 232 226 228 226
325 331 338 345 347 348 347 348 348 348 348 346 345 344 344 343 340 338 337 334 331 330 328 328 316 291 288 273 250 245 245 256 256 240 222 210 212 217 220 220 221 229 322 347 350 358 357 332 166 169 172 166 171 179 192 228 221 178 213 270 358 25 278 247 232 220 216 220 190 185 181 206 219 196 196 201 216 220 226 226 221 232 239 237 235 229 228 226
311 317 326 333 337 341 341 341 342 343 342 341 340 339 340 340 338 337 335 333 330 328 323 319 317 298 280 275 263 246 241 263 253 230 217 210 213 217 220 224 227 240 268 319 328 345 357 99 164 169 178 164 168 189 199 209 208 190 224 284 356 211 260 286 243 232 218 206 190 177 176 203 203 206 209 202 222 236 231 236 238 242 245 244 244 237 228 225
297 303 310 318 324 329 332 335 337 336 336 335 334 334 334 334 334 334 332 332 331 326 321 315 315 303 280 272 271 242 224 243 242 214 211 208 215 219 222 227 230 241 254 291 310 326 345 183 179 182 185 168 181 194 186 200 206 224 231 235 251 222 240 302 261 243 211 188 187 187 195 197 190 219 221 217 232 239 242 250 250 246 246 248 248 240 231 228
288 294 298 304 308 314 321 326 328 329 331 330 330 328 328 329 329 330 330 330 330 327 321 315 313 305 287 270 271 249 235 249 261 247 220 212 218 221 226 231 233 242 245 268 286 297 315 253 207 196 183 165 190 188 177 198 203 242 249 176 243 229 232 271 272 256 216 203 219 207 213 199 199 229 227 232 241 242 246 255 256 252 250 247 243 239 236 234
285 288 291 296 301 306 310 315 320 322 324 325 325 323 322 323 324 325 326 326 328 327 320 315 312 303 291 271 270 262 251 258 261 251 235 223 225 225 228 232 236 243 242 257 272 279 291 275 232 198 195 212 182 175 166 189 199 222 241 179 233 236 236 259 269 261 232 227 238 224 231 213 214 239 252 251 252 251 250 253 254 253 252 248 244 240 236 234
284 286 288 293 296 300 305 309 312 312 317 319 320 319 318 318 319 321 322 323 325 324 320 317 311 300 288 273 268 265 263 267 259 245 238 230 228 227 230 233 237 240 242 253 262 271 275 268 257 228 235 202 172 169 172 206 212 204 225 205 217 233 243 261 266 257 238 233 235 236 244 231 231 256 266 260 260 260 256 251 250 248 248 248 245 242 237 235
284 286 288 290 293 297 301 304 305 306 310 312 314 316 314 313 315 317 319 320 321 321 319 316 311 299 283 270 254 257 276 271 251 245 240 233 229 228 230 233 238 240 245 252 255 268 266 268 279 247 232 185 175 179 183 219 238 182 220 242 239 247 253 260 260 250 246 243 232 240 256 255 232 247 264 262 259 260 253 245 245 244 244 246 244 243 239 237
283 285 287 289 291 293 296 299 300 301 303 305 309 311 311 310 312 315 316 317 318 318 319 316 311 294 279 263 231 244 281 272 253 253 243 236 230 228 231 233 238 241 245 251 254 263 262 268 281 232 210 186 183 195 206 223 228 170 223 251 246 255 264 253 250 252 244 251 233 235 267 264 195 215 247 251 253 259 250 241 243 241 242 244 243 242 238 237
280 282 284 287 288 290 292 293 294 296 298 301 304 306 309 308 309 312 313 314 315 315 317 318 309 289 280 262 245 257 278 269 260 261 247 240 234 231 233 235 238 242 246 251 254 259 261 265 271 253 224 195 184 193 208 199 197 166 194 268 245 248 262 231 223 237 217 239 219 205 268 246 206 228 243 247 254 258 251 246 244 241 241 242 242 240 238 237
276 278 280 283 285 287 288 289 290 291 292 296 299 302 303 304 307 309 310 312 312 314 316 317 306 288 278 265 265 274 276 265 261 258 248 243 238 234 234 236 239 242 245 250 256 256 254 257 264 251 213 194 195 195 177 148 167 179 162 292 275 257 252 185 175 194 193 217 170 173 278 246 204 227 243 248 251 251 244 244 245 243 242 241 241 240 238 237
272 274 277 279 281 283 285 287 288 288 289 292 295 296 297 299 302 303 305 308 309 310 312 311 301 287 270 268 280 281 271 265 260 254 249 243 238 236 235 237 239 242 246 250 255 253 247 250 251 234 206 191 168 167 164 136 188 205 175 252 260 262 235 136 160 172 182 198 171 185 275 268 218 216 237 247 247 245 240 243 245 245 244 243 243 241 240 238
269 271 273 275 277 279 281 283 285 287 288 290 292 294 294 294 296 298 300 303 306 306 306 302 293 284 272 274 279 276 268 263 258 255 249 243 237 236 235 237 238 242 248 249 250 247 239 234 225 202 159 158 154 175 225 212 176 170 253 240 195 236 244 143 176 189 207 175 175 199 256 272 269 203 222 241 242 240 239 243 244 246 247 245 245 244 243 242
269 270 270 272 273 275 278 280 282 284 285 288 291 292 293 293 293 295 296 298 300 299 298 292 283 278 272 278 276 267 261 257 258 258 249 242 236 234 236 238 240 243 247 248 249 239 226 219 212 199 176 174 180 219 265 255 222 179 243 266 224 223 264 182 168 197 242 144 189 223 257 277 280 160 206 230 235 236 240 247 245 245 248 247 248 247 244 243
269 270 270 271 271 273 275 277 280 281 284 286 288 290 292 293 293 295 294 294 293 291 290 281 277 276 263 265 265 258 257 257 260 257 248 242 235 233 234 235 236 238 240 243 238 217 210 208 207 210 194 187 207 214 253 261 251 204 195 259 253 232 252 252 176 155 191 208 219 225 240 260 263 242 224 237 242 239 243 254 253 249 249 251 250 248 245 244
268 270 270 271 271 271 272 275 277 279 281 284 287 289 291 293 296 296 293 289 285 282 281 264 246 265 259 247 243 246 253 256 258 254 244 237 233 230 230 230 232 229 222 230 222 203 201 194 209 245 208 197 197 193 225 250 260 263 243 254 271 246 235 243 242 151 165 212 235 223 229 252 262 265 259 255 252 248 253 260 261 254 250 253 252 248 246 245
268 268 269 270 271 271 272 273 275 276 278 280 284 287 292 296 297 294 288 279 265 257 265 232 200 224 274 240 235 247 255 254 254 249 239 232 229 225 223 222 223 211 190 204 202 186 191 182 195 243 227 210 203 203 226 245 257 269 267 265 273 265 255 245 177 152 181 224 243 234 236 250 262 267 267 263 251 247 257 263 261 253 247 250 250 248 246 247
271 269 269 269 270 271 272 273 274 275 276 278 281 286 292 298 299 294 281 262 253 256 267 258 240 250 265 262 258 261 260 258 259 250 238 232 223 216 215 208 206 205 199 203 179 159 182 217 230 236 230 214 208 212 230 266 289 257 256 254 258 260 269 263 118 129 183 241 252 244 245 254 262 266 267 267 257 244 253 257 255 248 243 248 249 247 247 251
277 275 273 272 271 271 271 272 272 273 275 277 280 285 286 283 280 288 288 278 272 268 267 266 262 259 262 263 264 264 261 262 262 250 240 227 207 200 204 195 191 207 198 136 109 132 164 227 241 240 234 215 211 211 213 188 174 231 237 252 259 251 265 274 105 136 173 221 260 259 260 260 260 263 261 259 257 250 248 249 253 251 247 250 250 249 251 255
281 281 280 279 277 276 275 276 274 272 272 274 276 278 276 273 271 275 285 288 279 272 266 264 262 261 263 261 259 260 255 256 259 246 235 215 200 198 191 187 202 212 150 124 143 175 198 239 246 232 116 105 84 164 196 208 199 213 225 250 262 256 274 280 99 115 177 219 270 283 282 272 264 264 258 249 244 252 253 249 254 256 252 252 252 251 252 255
279 280 280 281 281 281 283 285 281 275 271 269 270 270 268 271 272 275 278 278 280 276 267 262 259 259 260 257 255 253 242 240 251 243 232 210 197 200 191 188 205 186 159 189 199 198 213 245 257 103 127 152 126 143 180 199 202 205 206 233 249 239 270 266 54 115 193 227 287 294 283 271 263 259 257 246 238 252 260 258 258 259 255 252 254 255 253 254
276 277 278 279 279 281 285 290 287 281 273 266 264 263 264 267 265 275 279 268 277 274 263 259 255 253 254 253 251 244 233 235 241 238 225 205 191 194 202 195 187 204 212 204 202 222 235 232 93 100 158 182 170 168 187 203 213 212 212 227 243 239 225 246 344 330 234 213 283 299 286 264 238 238 248 241 234 255 264 267 264 260 255 252 252 254 255 255
275 275 277 276 276 278 283 288 285 281 274 265 261 257 257 258 256 276 289 273 258 255 259 254 247 248 246 245 241 230 226 235 236 231 213 200 191 180 188 187 195 228 215 179 193 238 249 178 116 124 153 183 193 202 201 206 218 225 220 228 244 260 254 238 10 330 281 245 198 334 307 285 176 187 227 202 233 259 257 261 266 261 252 246 245 247 252 255
280 278 278 275 274 274 278 283 277 277 271 257 254 244 237 232 243 298 303 273 245 201 208 221 223 231 229 228 218 201 215 243 233 224 205 199 197 188 178 172 193 245 168 145 191 245 251 118 121 157 163 177 213 234 204 189 216 239 223 234 243 251 257 232 232 273 276 281 354 42 303 288 215 177 195 170 212 258 249 247 267 266 255 242 244 248 250 253
287 284 281 279 276 273 275 272 263 264 248 240 236 214 214 207 182 14 345 275 245 174 158 182 188 192 203 201 177 167 211 212 195 204 196 195 195 195 208 184 169 212 149 144 214 219 129 120 125 164 170 184 218 241 187 170 205 243 70 64 169 181 207 206 208 240 268 314 301 187 235 276 272 211 197 182 191 241 255 247 259 267 264 254 251 255 254 253
295 288 289 287 280 275 272 264 256 244 224 225 208 194 192 172 154 87 309 272 247 135 142 166 171 187 191 175 172 175 305 148 154 191 188 188 188 191 224 217 181 168 165 189 219 206 100 158 175 169 179 205 215 270 160 175 203 308 67 72 111 129 161 171 212 248 272 320 269 194 186 265 276 190 180 211 206 222 245 246 244 254 261 263 260 259 259 254
297 293 297 298 294 286 280 270 249 229 219 203 181 180 164 151 143 85 233 259 224 122 139 161 168 182 163 158 186 210 261 153 201 169 171 183 186 183 237 214 165 137 170 230 242 300 63 179 192 170 186 212 169 38 41 200 205 140 139 99 91 92 90 131 243 260 260 273 248 191 168 242 279 164 137 163 205 215 234 245 246 244 256 263 263 259 257 248
294 294 296 301 304 299 294 281 244 222 202 182 176 169 150 144 136 187 229 244 237 126 122 156 172 163 150 151 206 225 223 250 117 140 150 177 186 183 151 155 134 139 170 281 263 234 84 94 230 203 206 141 105 70 22 10 126 139 154 122 104 124 101 134 245 275 267 259 224 199 184 208 273 182 143 151 180 202 212 231 250 252 255 261 261 256 246 232
284 287 288 291 298 301 300 279 243 214 188 178 165 153 146 136 132 227 230 242 61 163 127 160 175 153 163 168 194 189 191 217 152 158 163 159 177 178 155 152 137 170 215 253 245 206 132 169 202 203 170 123 110 92 54 57 122 154 168 163 251 237 163 194 195 155 250 258 191 202 193 200 240 233 151 163 180 202 212 225 241 245 247 254 257 252 235 219
273 277 278 278 283 296 299 272 239 207 188 174 157 152 147 173 234 223 216 58 140 193 154 169 180 172 181 183 182 162 160 195 174 179 181 158 185 188 196 199 166 187 234 221 222 190 188 201 159 149 168 169 162 116 94 88 175 205 178 168 255 274 260 248 220 184 238 254 117 119 177 213 241 247 208 208 210 214 225 236 241 240 244 254 256 247 230 218
266 265 266 268 274 288 294 268 225 201 188 169 159 149 124 240 234 183 156 185 215 179 102 103 119 161 161 161 198 168 155 203 166 177 191 158 202 212 233 251 179 251 252 184 203 210 226 251 142 167 200 191 191 181 187 188 178 192 180 180 221 231 258 258 240 244 260 261 136 124 159 241 259 258 221 217 218 212 218 235 242 244 245 253 256 244 227 219
265 257 258 263 267 272 282 268 214 195 184 168 160 136 150 234 235 122 176 206 229 40 70 75 108 139 168 190 205 171 197 213 157 171 193 162 197 218 226 224 207 247 9 161 219 193 238 268 174 176 166 173 191 207 170 121 154 191 174 178 228 205 223 257 268 279 289 300 228 152 183 239 255 267 207 214 220 213 219 235 242 247 249 250 250 244 232 224
263 252 252 256 256 255 267 262 212 192 180 169 161 149 207 228 225 136 197 189 150 172 100 49 133 154 216 241 251 220 227 224 149 160 190 182 202 205 196 205 193 173 147 198 218 169 243 265 169 128 111 160 181 194 106 112 151 181 90 173 238 210 205 256 297 290 311 309 262 182 216 243 230 115 163 149 213 210 223 237 240 244 249 249 248 248 246 241
250 242 244 247 249 248 255 249 210 190 181 172 167 202 220 232 211 169 191 160 165 161 125 114 162 166 227 218 215 226 220 221 156 168 205 206 227 217 181 207 186 180 187 185 179 173 229 265 126 91 177 170 167 105 124 166 177 151 167 196 205 34 207 234 266 92 119 278 267 207 249 266 257 216 174 147 179 204 221 235 232 234 242 246 246 249 252 251
237 234 237 241 244 242 240 241 210 189 184 180 200 215 225 235 198 175 179 155 149 142 145 205 196 177 208 211 210 192 168 198 177 179 203 196 229 201 179 233 194 189 203 200 211 225 218 265 149 121 212 161 19 24 81 357 15 139 191 190 132 58 350 239 264 296 243 262 272 259 269 277 270 254 155 150 193 219 226 229 222 228 238 242 243 247 251 252
237 231 234 240 242 235 228 226 200 188 185 191 224 226 229 217 190 172 163 150 143 158 176 220 200 175 202 212 204 166 163 184 168 175 207 194 222 179 162 208 197 194 210 209 227 266 190 247 257 90 331 81 51 291 141 43 13 46 274 239 123 207 182 163 227 255 249 254 275 277 279 276 260 245 144 164 197 216 225 226 218 224 229 233 240 244 247 251
232 224 233 239 236 227 219 205 185 181 183 208 228 231 233 219 212 181 172 171 177 187 198 221 212 199 211 201 156 151 179 190 164 177 212 195 212 176 162 191 198 201 207 198 202 246 156 223 245 3 323 109 124 210 195 181 159 21 287 218 347 263 197 178 187 222 249 255 275 284 285 277 249 177 159 178 196 206 215 220 218 222 223 226 236 242 245 249
219 213 239 241 231 218 204 187 176 173 182 220 231 242 267 273 269 221 199 196 196 196 211 223 213 214 215 191 167 174 194 210 185 190 217 193 206 203 179 186 179 193 197 187 199 210 117 217 232 118 326 224 189 196 200 190 173 175 198 182 180 189 90 288 245 189 244 254 261 277 281 275 245 122 158 177 189 200 201 212 216 215 226 233 238 242 245 246
213 211 241 229 215 201 187 175 177 183 192 232 240 245 253 285 283 251 230 230 242 241 237 236 214 219 213 194 218 187 184 217 203 202 225 202 215 227 191 194 173 128 145 171 214 209 161 206 218 187 199 221 219 198 186 195 174 177 186 184 187 176 148 220 233 200 181 242 244 242 272 273 248 105 129 159 175 200 194 209 214 202 225 237 240 241 244 247
210 213 222 199 189 188 180 173 190 195 200 221 233 251 265 277 271 265 252 243 245 272 282 273 228 226 219 205 210 182 179 208 201 205 226 214 220 219 190 193 178 146 142 163 208 201 161 150 211 225 226 220 257 61 55 325 186 183 210 200 186 179 178 202 222 217 166 226 249 221 272 271 235 98 72 141 156 202 198 200 198 201 226 236 237 239 247 252
209 218 210 193 190 185 177 175 202 193 214 226 233 266 266 271 294 270 246 232 227 231 241 244 226 231 237 224 198 185 193 210 199 191 216 232 227 224 200 182 168 152 154 171 174 162 124 141 210 240 263 240 80 92 113 11 145 199 231 205 183 196 199 203 227 217 182 219 213 163 252 261 156 86 79 191 176 215 205 193 195 205 225 234 236 241 248 252
216 219 198 190 190 184 177 185 200 198 219 224 231 248 245 251 261 245 233 218 219 214 223 238 232 234 243 207 191 209 197 208 214 190 207 239 230 218 198 177 169 174 196 188 175 167 167 196 194 208 253 252 230 184 164 178 199 220 229 191 192 206 206 219 324 156 242 233 205 185 242 253 267 82 161 165 193 228 180 180 214 221 222 230 237 242 246 250
214 209 188 188 190 189 193 210 202 202 214 218 228 235 237 249 249 241 238 234 236 233 239 253 245 230 231 179 233 239 207 216 237 210 212 236 236 186 194 183 181 192 201 183 172 170 171 187 183 194 226 227 234 234 193 153 193 225 218 189 193 203 204 208 212 213 234 226 192 203 241 256 279 277 256 235 247 262 247 189 211 229 231 233 238 242 247 251
200 193 187 182 193 203 215 225 227 223 209 214 226 229 228 238 246 236 224 230 239 236 245 286 267 215 223 210 237 248 231 228 236 227 232 234 186 40 212 198 199 206 201 179 172 170 164 187 191 209 228 225 239 252 240 116 159 200 199 190 197 207 206 205 217 224 225 185 195 228 241 254 272 274 273 273 272 276 276 248 224 233 235 237 242 250 254 255
196 182 181 174 197 216 227 228 229 230 211 205 205 209 219 227 241 232 207 218 232 226 231 263 231 222 228 217 228 242 237 231 230 237 247 245 222 333 244 209 220 232 224 190 180 170 133 214 206 219 230 229 240 251 245 175 176 207 197 190 202 210 205 210 225 221 159 112 236 241 243 252 263 268 273 277 278 279 278 274 267 252 240 241 252 260 262 261
219 199 191 193 198 201 213 219 218 216 214 204 199 218 222 219 225 225 214 218 224 208 207 238 229 228 235 229 229 244 242 240 241 239 247 251 242 259 349 215 229 231 224 223 192 171 170 229 221 225 233 233 238 248 248 221 202 222 204 194 206 209 204 213 226 220 183 207 239 245 249 257 261 260 266 273 277 276 276 277 277 270 259 263 270 270 269 267
233 231 204 204 205 181 197 211 213 211 213 210 208 222 223 219 222 222 210 182 218 209 202 220 229 225 232 235 234 238 236 235 240 236 239 246 236 213 225 240 227 204 203 194 209 199 185 224 229 233 245 248 248 254 257 254 252 253 235 215 220 219 211 217 229 227 218 228 245 256 262 267 266 265 271 276 273 273 276 281 282 277 270 272 276 275 274 273
239 245 227 211 212 199 202 210 211 209 213 213 214 217 220 226 228 227 209 185 207 211 194 216 234 227 224 229 228 229 230 231 241 242 232 230 226 205 218 228 181 139 208 200 210 220 204 220 231 237 250 250 248 254 257 254 252 254 257 253 246 235 219 224 236 231 225 241 258 265 270 271 265 265 269 268 268 272 277 280 279 275 270 272 275 274 275 276
254 260 266 258 232 202 205 209 201 203 210 209 215 220 223 229 229 231 226 209 212 214 194 209 228 231 228 228 221 225 231 230 236 241 237 231 217 199 207 203 154 150 201 209 198 190 212 231 236 239 247 243 241 247 245 225 222 252 260 255 250 245 233 233 238 231 218 234 249 253 254 253 254 257 257 257 263 268 270 271 271 269 269 273 275 273 274 275
268 268 271 279 266 193 207 217 202 208 212 202 211 217 219 226 226 226 237 221 215 224 222 215 222 231 232 225 217 223 230 230 232 239 242 241 223 203 203 201 193 196 204 204 196 177 199 222 227 225 237 243 242 246 243 221 226 244 241 243 247 249 247 247 249 245 232 228 241 250 247 245 251 255 254 255 257 256 255 260 265 268 274 279 277 273 274 275
Height
1573 1572 1572 1572 1571 1571 1570 1569 1569 1568 1568 1567 1567 1566 1566 1565 1565 1564 1563 1563 1562 1561 1561 1560 1559 1559 1558 1558 1558 1557 1557 1556 1556 1556 1555 1555 1555 1554 1554 1554 1553 1553 1552 1551 1551 1550 1550 1549 1549 1549 1549 1550 1550 1549 1549 1549 1549 1549 1548 1548 1546 1544 1544 1541 1541 1541 1539 1539 1541 1543 1543 1543 1544 1546 1547 1548 1549 1548 1548 1547 1546 1546 1545 1545 1545 1546 1546 1545
1573 1572 1572 1571 1571 1570 1570 1569 1568 1568 1567 1567 1566 1566 1565 1565 1564 1564 1563 1562 1562 1561 1561 1560 1559 1558 1558 1558 1557 1557 1556 1556 1555 1555 1554 1554 1554 1554 1554 1553 1553 1552 1552 1551 1551 1550 1550 1549 1548 1548 1548 1549 1549 1549 1549 1548 1549 1548 1548 1548 1544 1541 1540 1539 1539 1540 1540 1540 1540 1542 1543 1543 1543 1544 1546 1546 1546 1547 1546 1545 1545 1545 1543 1543 1544 1545 1544 1544
1572 1572 1571 1571 1571 1570 1569 1569 1568 1568 1567 1566 1566 1565 1565 1564 1563 1563 1562 1562 1561 1561 1560 1560 1559 1558 1558 1557 1557 1557 1556 1556 1554 1553 1553 1553 1553 1553 1553 1553 1552 1552 1551 1551 1550 1550 1549 1548 1548 1547 1548 1548 1548 1548 1548 1548 1548 1547 1548 1545 1541 1540 1539 1539 1540 1540 1541 1541 1541 1541 1542 1543 1543 1543 1545 1544 1544 1544 1542 1540 1542 1541 1539 1539 1540 1542 1542 1543
1572 1571 1571 1571 1570 1570 1569 1569 1568 1567 1567 1566 1565 1565 1564 1563 1563 1562 1562 1561 1561 1560 1560 1559 1558 1558 1557 1557 1556 1556 1556 1555 1552 1551 1552 1552 1552 1552 1552 1552 1552 1551 1551 1550 1550 1549 1549 1548 1547 1547 1547 1547 1548 1548 1547 1547 1547 1547 1546 1542 1540 1541 1540 1538 1539 1540 1540 1541 1541 1541 1542 1542 1542 1543 1543 1542 1542 1539 1536 1535 1536 1535 1535 1536 1537 1539 1540 1540
1571 1571 1571 1570 1570 1569 1569 1568 1568 1567 1566 1566 1565 1564 1563 1563 1562 1561 1561 1560 1560 1559 1559 1558 1558 1557 1556 1556 1556 1555 1556 1555 1550 1549 1551 1551 1551 1551 1551 1551 1551 1550 1550 1550 1549 1549 1548 1547 1547 1547 1547 1547 1547 1547 1546 1546 1546 1545 1543 1541 1541 1542 1540 1538 1539 1540 1540 1541 1541 1540 1541 1540 1541 1541 1540 1540 1536 1530 1530 1531 1532 1533 1534 1534 1535 1536 1537 1537
1570 1570 1570 1569 1569 1569 1568 1568 1567 1566 1566 1565 1564 1563 1563 1562 1561 1561 1560 1559 1559 1558 1558 1557 1557 1556 1556 1555 1555 1555 1555 1553 1548 1549 1550 1550 1550 1550 1550 1550 1550 1550 1549 1549 1549 1549 1548 1547 1547 1547 1546 1546 1546 1545 1545 1545 1545 1543 1540 1541 1542 1541 1541 1539 1539 1540 1539 1540 1540 1540 1539 1538 1540 1538 1538 1537 1530 1526 1528 1529 1530 1532 1532 1532 1533 1533 1533 1533
1568 1568 1568 1568 1568 1567 1567 1567 1566 1565 1565 1564 1563 1562 1562 1561 1561 1560 1559 1558 1558 1558 1557 1556 1556 1555 1555 1555 1554 1554 1553 1550 1548 1549 1549 1549 1550 1549 1550 1549 1549 1549 1549 1549 1548 1548 1548 1547 1546 1546 1545 1545 1545 1545 1544 1544 1545 1543 1540 1540 1541 1541 1540 1539 1540 1539 1539 1540 1539 1539 1538 1538 1538 1536 1536 1531 1523 1526 1528 1527 1529 1529 1529 1530 1530 1530 1530 1530
1567 1567 1567 1567 1567 1566 1566 1566 1565 1565 1564 1563 1562 1562 1561 1560 1560 1559 1558 1558 1557 1557 1556 1555 1555 1555 1554 1554 1553 1553 1551 1548 1548 1548 1548 1549 1548 1549 1549 1548 1548 1548 1548 1548 1547 1547 1547 1546 1546 1545 1544 1543 1543 1544 1545 1544 1544 1542 1540 1539 1540 1540 1539 1539 1539 1538 1539 1539 1538 1538 1537 1536 1536 1536 1533 1524 1520 1524 1526 1526 1527 1527 1527 1527 1527 1526 1527 1527
1566 1566 1565 1565 1565 1565 1565 1565 1564 1564 1563 1563 1562 1561 1560 1559 1559 1558 1557 1557 1556 1555 1555 1554 1554 1553 1553 1553 1553 1552 1549 1547 1547 1547 1547 1547 1547 1548 1547 1547 1547 1547 1547 1547 1547 1546 1546 1545 1545 1544 1543 1542 1542 1543 1544 1543 1541 1540 1539 1539 1539 1539 1539 1538 1538 1538 1538 1537 1538 1537 1536 1535 1535 1536 1527 1516 1518 1521 1522 1523 1523 1524 1524 1524 1524 1524 1524 1524
1565 1564 1564 1564 1564 1564 1563 1563 1563 1562 1562 1562 1561 1560 1559 1558 1557 1557 1556 1555 1555 1554 1553 1553 1552 1552 1552 1551 1552 1550 1546 1546 1546 1545 1546 1546 1546 1546 1546 1546 1546 1546 1546 1546 1545 1545 1545 1545 1544 1543 1543 1542 1542 1542 1543 1542 1540 1540 1540 1539 1539 1538 1538 1538 1537 1537 1536 1536 1537 1535 1534 1533 1534 1536 1523 1511 1516 1518 1518 1520 1519 1520 1520 1520 1521 1521 1521 1522
1564 1563 1563 1563 1562 1562 1562 1562 1561 1561 1561 1560 1560 1559 1558 1557 1556 1556 1555 1554 1553 1553 1552 1551 1551 1551 1550 1550 1551 1548 1545 1545 1545 1545 1545 1545 1545 1545 1545 1545 1545 1545 1545 1545 1544 1544 1544 1543 1543 1543 1542 1542 1542 1542 1542 1541 1541 1541 1541 1539 1538 1538 1537 1536 1536 1536 1535 1535 1535 1535 1534 1532 1534 1532 1517 1510 1514 1515 1516 1517 1516 1517 1517 1517 1518 1518 1518 1518
1562 1562 1562 1561 1561 1561 1560 1560 1559 1559 1559 1559 1559 1558 1557 1556 1555 1555 1554 1553 1552 1551 1550 1550 1549 1549 1549 1548 1547 1545 1544 1544 1544 1544 1544 1543 1544 1544 1544 1544 1544 1544 1544 1544 1544 1543 1543 1543 1543 1542 1541 1541 1541 1541 1541 1541 1541 1541 1541 1539 1536 1536 1534 1532 1534 1534 1534 1534 1533 1536 1533 1526 1527 1521 1509 1510 1513 1513 1514 1514 1514 1514 1514 1514 1514 1515 1515 1515
1560 1560 1560 1560 1559 1559 1559 1558 1558 1557 1557 1557 1557 1557 1556 1555 1554 1554 1552 1552 1551 1550 1549 1548 1548 1547 1548 1546 1543 1543 1543 1542 1542 1543 1542 1542 1543 1543 1543 1543 1543 1543 1543 1543 1543 1543 1543 1542 1542 1542 1541 1541 1541 1541 1540 1541 1541 1540 1541 1539 1535 1534 1531 1529 1532 1533 1533 1534 1533 1536 1528 1513 1511 1509 1506 1510 1510 1510 1512 1511 1512 1511 1511 1511 1511 1511 1510 1511
1558 1558 1558 1558 1558 1558 1557 1557 1556 1555 1555 1555 1555 1555 1554 1553 1553 1552 1551 1550 1549 1549 1547 1547 1547 1546 1546 1543 1541 1541 1541 1541 1541 1541 1541 1541 1541 1542 1542 1542 1542 1543 1542 1543 1542 1542 1542 1542 1542 1541 1541 1541 1541 1541 1541 1541 1541 1540 1541 1540 1538 1535 1528 1528 1532 1531 1532 1532 1532 1536 1528 1507 1502 1505 1506 1508 1508 1509 1510 1508 1509 1507 1507 1508 1507 1507 1506 1507
1556 1556 1556 1556 1556 1555 1555 1555 1554 1553 1553 1553 1553 1553 1552 1552 1551 1550 1550 1548 1548 1547 1546 1546 1545 1545 1544 1541 1539 1539 1539 1539 1539 1538 1539 1539 1540 1541 1541 1541 1542 1542 1542 1542 1542 1542 1541 1541 1541 1541 1541 1541 1541 1541 1539 1538 1539 1540 1539 1535 1538 1536 1527 1527 1531 1530 1529 1531 1532 1534 1527 1507 1500 1503 1504 1505 1506 1507 1507 1506 1505 1504 1504 1504 1503 1503 1502 1503
1554 1554 1554 1553 1553 1553 1553 1553 1552 1552 1551 1551 1551 1551 1550 1549 1549 1549 1548 1547 1546 1545 1545 1545 1544 1544 1543 1539 1538 1537 1537 1537 1536 1537 1537 1537 1539 1539 1540 1540 1541 1541 1541 1541 1541 1541 1541 1541 1541 1541 1541 1540 1540 1539 1537 1537 1535 1537 1537 1531 1532 1533 1528 1526 1528 1530 1529 1530 1531 1530 1522 1506 1499 1501 1502 1503 1504 1505 1505 1503 1502 1500 1500 1500 1499 1498 1498 1499
1552 1552 1552 1552 1551 1551 1551 1551 1550 1549 1549 1549 1549 1549 1549 1548 1547 1546 1545 1545 1544 1543 1543 1543 1542 1543 1541 1537 1536 1535 1535 1535 1535 1535 1535 1536 1537 1537 1539 1539 1539 1540 1540 1540 1540 1540 1540 1540 1541 1539 1539 1539 1538 1538 1540 1540 1532 1532 1537 1533 1528 1529 1528 1525 1524 1528 1530 1530 1528 1527 1523 1509 1499 1500 1501 1502 1503 1504 1502 1499 1497 1496 1495 1496 1495 1494 1493 1495
1550 1550 1550 1550 1549 1549 1549 1548 1548 1547 1547 1547 1547 1546 1546 1545 1544 1544 1543 1542 1542 1542 1542 1540 1541 1543 1538 1534 1533 1533 1533 1533 1533 1533 1533 1534 1535 1536 1537 1537 1538 1539 1539 1540 1539 1539 1540 1540 1540 1538 1538 1539 1537 1537 1540 1536 1527 1527 1531 1530 1526 1526 1527 1524 1522 1525 1529 1529 1526 1525 1522 1510 1499 1498 1500 1500 1501 1500 1498 1494 1492 1490 1491 1491 1490 1489 1489 1490
1547 1547 1547 1547 1547 1547 1547 1546 1546 1545 1545 1545 1545 1544 1544 1543 1542 1541 1540 1540 1540 1540 1539 1538 1538 1538 1535 1531 1531 1532 1531 1532 1531 1531 1532 1533 1534 1534 1535 1536 1537 1537 1539 1538 1537 1538 1539 1539 1540 1538 1534 1532 1531 1530 1529 1525 1523 1525 1526 1527 1526 1524 1521 1519 1521 1525 1527 1528 1524 1520 1516 1507 1499 1497 1497 1497 1497 1496 1493 1489 1486 1484 1485 1485 1484 1483 1484 1485
1544 1544 1544 1544 1544 1544 1544 1544 1544 1543 1543 1542 1543 1543 1542 1542 1540 1538 1537 1537 1536 1536 1535 1535 1534 1533 1532 1530 1531 1531 1530 1530 1530 1530 1530 1531 1532 1533 1534 1535 1535 1536 1536 1535 1535 1537 1538 1538 1535 1529 1523 1522 1524 1523 1523 1523 1525 1527 1528 1529 1528 1525 1518 1514 1520 1526 1527 1526 1517 1511 1510 1505 1499 1494 1493 1494 1493 1492 1488 1483 1478 1477 1479 1478 1478 1478 1479 1479
1541 1541 1541 1541 1541 1540 1541 1541 1541 1540 1541 1540 1541 1541 1541 1541 1540 1537 1535 1534 1533 1533 1532 1532 1532 1531 1529 1529 1529 1528 1528 1528 1527 1528 1529 1529 1531 1532 1532 1533 1534 1534 1532 1533 1536 1536 1538 1536 1526 1516 1516 1519 1522 1523 1525 1527 1529 1529 1529 1529 1526 1524 1518 1513 1521 1526 1527 1527 1514 1507 1509 1503 1496 1492 1489 1490 1489 1484 1478 1475 1472 1471 1473 1472 1472 1473 1474 1475
1539 1538 1538 1538 1537 1537 1538 1538 1538 1538 1538 1538 1538 1538 1539 1539 1538 1537 1536 1533 1529 1529 1530 1529 1529 1527 1526 1527 1526 1526 1527 1526 1525 1524 1526 1527 1529 1529 1529 1530 1531 1530 1531 1534 1535 1536 1538 1530 1517 1513 1518 1522 1524 1526 1527 1527 1530 1530 1529 1531 1526 1520 1516 1514 1522 1527 1527 1526 1513 1508 1509 1499 1490 1487 1482 1482 1481 1473 1468 1469 1467 1466 1468 1467 1467 1468 1469 1471
1536 1535 1535 1535 1535 1535 1535 1535 1535 1534 1535 1535 1535 1536 1536 1536 1536 1536 1536 1533 1527 1525 1525 1525 1524 1523 1522 1523 1522 1523 1524 1522 1521 1520 1522 1524 1526 1527 1527 1527 1528 1529 1531 1530 1529 1533 1533 1521 1514 1517 1520 1521 1525 1529 1529 1527 1529 1528 1528 1528 1521 1517 1518 1515 1520 1527 1526 1523 1517 1514 1510 1493 1482 1478 1472 1473 1473 1467 1464 1465 1464 1462 1462 1461 1462 1464 1465 1466
1533 1532 1532 1532 1532 1532 1532 1533 1532 1532 1532 1532 1533 1533 1534 1534 1535 1534 1534 1532 1526 1521 1521 1520 1520 1519 1518 1518 1518 1519 1519 1518 1518 1517 1518 1521 1523 1525 1524 1524 1527 1528 1526 1524 1525 1526 1521 1516 1517 1521 1520 1521 1525 1528 1528 1526 1525 1525 1525 1522 1514 1513 1518 1517 1520 1525 1521 1520 1522 1517 1499 1475 1468 1469 1464 1467 1470 1465 1463 1462 1459 1455 1455 1456 1458 1459 1460 1460
1530 1530 1529 1529 1529 1529 1530 1530 1529 1530 1529 1530 1531 1531 1532 1533 1533 1534 1534 1532 1525 1519 1517 1517 1515 1514 1513 1514 1515 1515 1516 1515 1514 1514 1515 1517 1519 1521 1522 1523 1524 1522 1520 1522 1527 1524 1517 1516 1519 1521 1523 1522 1523 1523 1523 1521 1521 1521 1520 1516 1512 1512 1517 1521 1525 1525 1517 1515 1519 1519 1499 1467 1458 1464 1462 1463 1468 1463 1461 1460 1455 1450 1450 1452 1453 1453 1454 1455
1527 1527 1526 1526 1526 1527 1528 1527 1527 1528 1527 1528 1529 1529 1532 1532 1532 1533 1532 1532 1525 1515 1513 1513 1511 1510 1509 1510 1511 1514 1516 1512 1510 1512 1514 1515 1517 1518 1519 1520 1520 1519 1518 1523 1526 1522 1517 1518 1520 1520 1522 1523 1522 1520 1517 1519 1520 1519 1517 1516 1516 1516 1520 1524 1526 1524 1515 1511 1515 1522 1513 1481 1459 1459 1457 1458 1463 1459 1458 1458 1451 1446 1446 1447 1447 1448 1450 1451
1524 1524 1524 1523 1523 1524 1525 1525 1526 1525 1525 1527 1527 1528 1531 1530 1533 1533 1532 1534 1521 1504 1505 1509 1507 1506 1506 1508 1508 1511 1512 1508 1507 1510 1511 1513 1514 1516 1516 1515 1517 1518 1519 1523 1523 1517 1515 1519 1522 1520 1520 1522 1521 1515 1513 1517 1518 1517 1519 1521 1519 1519 1523 1524 1524 1522 1515 1515 1517 1517 1519 1501 1469 1456 1452 1452 1459 1458 1455 1456 1450 1444 1441 1441 1443 1444 1446 1448
1523 1523 1522 1522 1521 1521 1522 1523 1523 1523 1524 1524 1525 1528 1528 1530 1533 1530 1535 1538 1514 1494 1499 1503 1504 1505 1504 1507 1507 1507 1507 1505 1506 1508 1509 1511 1513 1515 1514 1511 1513 1515 1517 1518 1514 1511 1513 1517 1519 1518 1520 1519 1515 1513 1513 1514 1515 1518 1523 1523 1521 1522 1523 1523 1523 1520 1518 1522 1518 1508 1517 1508 1467 1450 1455 1453 1456 1459 1453 1451 1447 1442 1439 1438 1440 1441 1442 1445
1521 1521 1520 1520 1519 1519 1521 1521 1521 1522 1522 1523 1525 1527 1527 1531 1532 1530 1543 1539 1503 1489 1498 1500 1502 1504 1503 1507 1507 1505 1506 1505 1506 1507 1508 1511 1511 1512 1513 1511 1513 1514 1516 1515 1510 1509 1513 1515 1515 1515 1516 1512 1512 1517 1517 1514 1513 1519 1524 1523 1523 1525 1524 1525 1523 1519 1523 1525 1513 1501 1510 1504 1460 1440 1457 1462 1458 1457 1451 1445 1441 1438 1437 1437 1437 1438 1440 1442
1520 1519 1520 1519 1519 1519 1519 1520 1521 1520 1521 1522 1524 1525 1528 1530 1530 1536 1545 1526 1494 1491 1499 1497 1500 1502 1502 1506 1506 1506 1506 1506 1506 1507 1509 1511 1511 1512 1512 1512 1514 1514 1515 1516 1512 1511 1513 1516 1515 1514 1511 1509 1514 1520 1520 1519 1517 1520 1523 1519 1522 1524 1524 1527 1523 1522 1524 1512 1497 1490 1493 1497 1469 1440 1448 1456 1450 1447 1444 1442 1438 1435 1436 1435 1435 1435 1437 1439
1518 1518 1518 1518 1518 1519 1519 1520 1520 1519 1521 1522 1522 1526 1528 1529 1532 1536 1527 1503 1491 1495 1496 1496 1499 1499 1499 1501 1501 1504 1506 1506 1506 1507 1508 1509 1510 1512 1511 1511 1514 1515 1516 1515 1511 1510 1514 1515 1513 1510 1509 1510 1514 1518 1521 1523 1521 1520 1518 1515 1518 1518 1518 1523 1522 1526 1522 1496 1485 1486 1486 1492 1475 1443 1439 1442 1439 1439 1439 1437 1434 1432 1433 1432 1432 1433 1434 1437
1517 1516 1516 1516 1517 1517 1518 1519 1518 1519 1520 1520 1524 1525 1525 1531 1530 1520 1507 1495 1493 1493 1489 1493 1497 1496 1498 1498 1498 1501 1503 1503 1504 1504 1504 1507 1507 1507 1505 1502 1505 1510 1510 1508 1507 1506 1507 1507 1507 1507 1509 1509 1509 1513 1521 1524 1522 1520 1516 1515 1519 1516 1515 1515 1511 1514 1506 1485 1486 1495 1491 1484 1460 1435 1437 1438 1435 1437 1436 1433 1430 1428 1430 1429 1429 1431 1432 1435
1514 1514 1514 1514 1514 1515 1516 1517 1517 1519 1519 1520 1524 1522 1527 1533 1515 1495 1496 1495 1489 1488 1487 1491 1494 1495 1497 1497 1497 1500 1500 1499 1501 1502 1503 1504 1506 1503 1500 1499 1499 1500 1499 1501 1505 1504 1501 1501 1506 1507 1504 1503 1501 1502 1508 1513 1517 1515 1510 1512 1515 1515 1519 1512 1499 1499 1492 1480 1487 1499 1495 1476 1447 1430 1431 1431 1429 1431 1431 1430 1427 1426 1427 1427 1428 1430 1431 1432
1511 1511 1511 1510 1512 1513 1514 1515 1515 1516 1518 1520 1521 1522 1530 1526 1497 1484 1492 1489 1484 1488 1490 1491 1494 1496 1496 1494 1494 1495 1496 1496 1497 1500 1501 1504 1506 1502 1498 1498 1498 1497 1498 1502 1503 1501 1498 1491 1492 1496 1492 1493 1494 1491 1492 1499 1509 1510 1504 1507 1507 1504 1508 1501 1488 1487 1483 1477 1485 1499 1489 1457 1435 1426 1419 1420 1423 1426 1428 1426 1424 1425 1425 1425 1427 1427 1429 1430
1507 1507 1507 1507 1508 1509 1511 1514 1513 1514 1518 1517 1518 1523 1521 1503 1485 1486 1486 1482 1485 1489 1490 1493 1494 1495 1495 1494 1494 1492 1489 1490 1494 1498 1499 1499 1496 1492 1489 1488 1492 1495 1498 1500 1498 1498 1498 1483 1479 1487 1486 1487 1490 1488 1490 1495 1503 1508 1507 1508 1504 1494 1492 1493 1492 1494 1498 1492 1484 1485 1467 1430 1420 1423 1417 1421 1424 1423 1426 1423 1421 1424 1422 1422 1425 1424 1425 1426
1503 1502 1503 1502 1502 1505 1509 1511 1511 1513 1515 1514 1517 1517 1498 1476 1475 1482 1476 1475 1481 1483 1488 1494 1492 1493 1495 1492 1492 1491 1487 1489 1493 1495 1495 1494 1488 1484 1483 1480 1481 1487 1486 1488 1489 1491 1492 1481 1480 1490 1489 1489 1490 1488 1492 1491 1493 1505 1507 1501 1497 1493 1489 1492 1499 1505 1511 1501 1470 1455 1446 1422 1418 1420 1414 1420 1423 1420 1422 1418 1417 1419 1417 1420 1422 1420 1421 1421
1497 1496 1496 1494 1495 1501 1505 1508 1510 1512 1513 1513 1510 1497 1476 1464 1467 1471 1469 1471 1474 1476 1483 1486 1482 1485 1487 1484 1483 1484 1487 1489 1491 1490 1488 1489 1481 1474 1478 1475 1473 1476 1472 1472 1477 1477 1478 1477 1482 1491 1489 1491 1494 1491 1493 1492 1491 1498 1499 1491 1491 1497 1496 1494 1499 1500 1502 1496 1463 1440 1437 1424 1416 1418 1416 1419 1421 1418 1416 1413 1413 1415 1415 1418 1418 1417 1417 1417
1492 1492 1490 1487 1490 1497 1501 1505 1508 1510 1512 1512 1501 1481 1467 1463 1462 1462 1466 1468 1469 1472 1476 1474 1471 1473 1475 1474 1474 1479 1485 1484 1486 1487 1482 1480 1470 1460 1467 1469 1466 1468 1464 1467 1473 1473 1475 1476 1483 1494 1493 1492 1496 1493 1492 1494 1494 1493 1491 1489 1489 1492 1495 1498 1503 1497 1490 1491 1467 1438 1432 1418 1402 1407 1415 1417 1416 1413 1409 1408 1410 1412 1413 1415 1414 1413 1414 1414
1489 1490 1486 1482 1487 1494 1498 1501 1504 1509 1513 1510 1496 1476 1465 1462 1460 1461 1462 1463 1465 1468 1467 1464 1464 1466 1467 1466 1467 1474 1479 1475 1477 1481 1473 1469 1464 1455 1457 1460 1459 1462 1462 1467 1471 1470 1474 1475 1478 1492 1497 1493 1494 1493 1487 1487 1494 1497 1492 1492 1490 1486 1487 1490 1493 1487 1479 1481 1468 1447 1432 1404 1381 1388 1400 1404 1405 1403 1403 1404 1406 1408 1409 1410 1410 1410 1411 1412
1485 1487 1481 1478 1484 1491 1494 1497 1502 1507 1507 1500 1486 1473 1466 1464 1463 1462 1461 1461 1461 1461 1459 1457 1459 1461 1461 1463 1464 1466 1470 1468 1468 1470 1464 1461 1458 1453 1453 1453 1454 1459 1461 1466 1468 1467 1474 1474 1472 1487 1499 1492 1482 1478 1472 1468 1478 1489 1488 1488 1488 1487 1489 1489 1486 1482 1478 1476 1471 1465 1443 1396 1371 1382 1389 1391 1396 1395 1398 1401 1402 1405 1406 1406 1407 1407 1408 1411
1482 1482 1477 1475 1481 1485 1490 1495 1496 1496 1496 1490 1480 1471 1468 1467 1464 1462 1462 1462 1461 1459 1457 1456 1456 1455 1456 1460 1461 1460 1464 1466 1463 1464 1460 1456 1453 1449 1448 1447 1448 1455 1462 1468 1468 1465 1469 1470 1467 1476 1485 1477 1463 1461 1463 1460 1462 1469 1471 1473 1474 1477 1484 1488 1483 1481 1483 1475 1461 1466 1450 1395 1370 1384 1386 1387 1394 1392 1396 1399 1399 1403 1404 1403 1405 1405 1406 1409
1479 1477 1473 1474 1477 1479 1484 1487 1486 1488 1488 1482 1473 1468 1468 1467 1464 1463 1463 1463 1462 1461 1459 1458 1456 1453 1451 1452 1453 1454 1458 1459 1459 1460 1455 1450 1447 1442 1440 1442 1444 1447 1453 1460 1461 1457 1459 1463 1463 1462 1460 1460 1461 1464 1467 1466 1463 1464 1464 1463 1463 1467 1470 1473 1472 1471 1479 1474 1459 1466 1457 1398 1367 1382 1387 1388 1394 1392 1395 1397 1397 1401 1401 1400 1402 1403 1405 1406
1474 1473 1472 1473 1473 1475 1479 1482 1482 1482 1479 1470 1466 1466 1467 1467 1466 1464 1463 1463 1462 1461 1460 1457 1455 1453 1451 1449 1451 1453 1453 1451 1451 1452 1451 1447 1443 1438 1438 1441 1443 1444 1446 1451 1454 1456 1459 1462 1463 1460 1453 1453 1463 1468 1468 1468 1467 1465 1462 1460 1461 1461 1458 1459 1461 1461 1465 1462 1455 1469 1461 1404 1370 1382 1388 1388 1391 1391 1393 1396 1397 1398 1398 1398 1400 1400 1402 1402
1470 1471 1471 1472 1473 1472 1473 1473 1473 1473 1470 1467 1468 1467 1465 1466 1465 1463 1462 1462 1460 1458 1456 1453 1451 1451 1450 1450 1451 1450 1449 1448 1444 1444 1445 1444 1438 1435 1436 1438 1440 1441 1441 1442 1445 1450 1456 1458 1460 1465 1463 1458 1459 1461 1463 1468 1467 1460 1457 1458 1458 1457 1458 1460 1463 1467 1462 1446 1442 1457 1444 1396 1373 1383 1388 1387 1389 1388 1390 1394 1395 1395 1395 1396 1396 1397 1398 1398
1468 1469 1469 1471 1473 1471 1466 1463 1463 1466 1466 1467 1466 1463 1463 1464 1460 1458 1460 1460 1458 1456 1454 1450 1449 1450 1449 1451 1450 1447 1446 1445 1441 1440 1441 1438 1434 1434 1436 1436 1436 1436 1434 1435 1437 1440 1446 1449 1452 1459 1463 1458 1449 1439 1440 1453 1461 1458 1455 1457 1456 1454 1456 1455 1458 1462 1452 1433 1434 1442 1421 1388 1379 1382 1381 1384 1386 1383 1385 1390 1391 1391 1391 1391 1392 1393 1393 1393
1462 1463 1466 1469 1471 1467 1463 1460 1461 1461 1460 1462 1462 1460 1461 1461 1455 1453 1456 1456 1455 1454 1453 1450 1449 1449 1448 1449 1448 1445 1443 1442 1441 1441 1438 1433 1433 1435 1436 1435 1434 1433 1433 1435 1436 1438 1440 1439 1439 1442 1443 1440 1433 1424 1424 1436 1447 1451 1451 1451 1450 1447 1446 1447 1448 1442 1433 1430 1433 1424 1406 1397 1394 1385 1376 1378 1382 1381 1381 1384 1386 1386 1385 1387 1388 1388 1387 1387
1456 1454 1455 1460 1463 1462 1461 1460 1459 1456 1454 1456 1457 1454 1453 1454 1453 1452 1452 1450 1449 1451 1453 1451 1449 1449 1447 1446 1444 1440 1438 1439 1442 1441 1434 1430 1432 1435 1435 1435 1434 1434 1434 1434 1435 1437 1439 1434 1430 1430 1429 1427 1425 1420 1421 1428 1434 1436 1440 1443 1443 1441 1443 1445 1437 1422 1423 1434 1428 1406 1400 1407 1403 1388 1378 1376 1379 1379 1377 1378 1379 1378 1380 1382 1383 1382 1381 1380
1451 1446 1443 1445 1447 1448 1450 1450 1448 1449 1449 1451 1451 1447 1446 1449 1450 1449 1446 1445 1447 1449 1451 1450 1447 1445 1442 1440 1441 1438 1437 1440 1442 1438 1432 1429 1432 1435 1435 1435 1435 1435 1435 1437 1436 1435 1436 1433 1427 1425 1424 1422 1420 1417 1416 1422 1426 1426 1429 1433 1434 1434 1436 1435 1425 1416 1421 1424 1409 1393 1397 1403 1397 1385 1377 1375 1376 1375 1372 1371 1372 1373 1376 1378 1377 1375 1374 1373
1446 1442 1439 1439 1436 1434 1436 1436 1438 1442 1445 1447 1447 1444 1443 1443 1442 1439 1439 1444 1446 1444 1445 1445 1441 1439 1438 1438 1440 1439 1439 1439 1436 1431 1430 1429 1430 1433 1434 1433 1434 1435 1435 1436 1436 1435 1434 1430 1425 1424 1423 1421 1420 1416 1412 1418 1424 1424 1425 1427 1426 1424 1425 1424 1419 1415 1414 1407 1396 1394 1400 1397 1387 1378 1374 1375 1373 1368 1367 1368 1366 1367 1369 1371 1372 1369 1367 1366
1442 1439 1437 1436 1431 1430 1431 1431 1435 1439 1440 1442 1442 1439 1438 1436 1432 1430 1431 1435 1437 1436 1438 1438 1432 1430 1431 1432 1434 1436 1434 1431 1428 1424 1424 1425 1426 1429 1429 1427 1429 1434 1436 1435 1434 1434 1432 1425 1420 1422 1423 1422 1418 1414 1413 1419 1423 1423 1425 1423 1417 1414 1418 1419 1413 1410 1411 1408 1402 1403 1407 1398 1382 1374 1375 1373 1366 1363 1366 1365 1361 1359 1359 1363 1365 1363 1359 1359
1438 1437 1436 1433 1427 1425 1426 1425 1428 1431 1432 1435 1434 1431 1430 1427 1423 1423 1421 1419 1422 1424 1425 1425 1422 1421 1424 1426 1429 1430 1424 1422 1421 1417 1415 1417 1420 1422 1423 1423 1425 1430 1434 1433 1431 1431 1431 1425 1422 1424 1425 1420 1414 1412 1415 1419 1423 1428 1427 1416 1405 1406 1410 1406 1399 1399 1406 1409 1406 1405 1403 1391 1374 1369 1371 1366 1361 1362 1363 1360 1355 1350 1350 1356 1360 1357 1353 1352
1435 1434 1433 1431 1424 1420 1421 1419 1420 1421 1418 1418 1418 1416 1416 1414 1413 1419 1419 1414 1413 1413 1412 1414 1416 1417 1420 1420 1419 1415 1410 1410 1411 1410 1409 1413 1416 1416 1416 1418 1420 1423 1428 1429 1428 1428 1427 1425 1423 1425 1425 1418 1411 1411 1414 1420 1429 1428 1414 1399 1395 1399 1398 1390 1386 1387 1392 1397 1398 1393 1383 1372 1364 1365 1364 1360 1358 1359 1357 1354 1348 1342 1347 1355 1355 1350 1346 1345